Regional Weather Roundup
Issued by NWS Upton, NY

Current Version | Previous Version | Text Only | Print | Product List | Glossary On
Versions: 1 2 3 4 5 6 7 8 9 10 11 12 13 14 15 16 17 18 19 20 21 22 23 24 25 26 27 28 29 30 31 32 33 34 35 36 37 38 39 40 41 42 43 44 45 46 47 48 49
000 ASUS41 KOKX 311405 RWROKX REGIONAL WEATHER ROUNDUP NATIONAL WEATHER SERVICE NEW YORK NY 900 AM EST SAT JAN 31 2015 NOTE: "FAIR" INDICATES FEW OR NO CLOUDS BELOW 12,000 FEET WITH NO SIGNIFICANT WEATHER AND/OR OBSTRUCTIONS TO VISIBILITY. NYZ071-072-176-178-NJZ106-104-311500- NEW YORK CITY METRO AREA CITY SKY/WX TMP DP RH WIND PRES REMARKS CENTRAL PARK SUNNY 13 -5 44 NW17G30 30.12R WCI -4 LAGUARDIA APRT MOSUNNY 15 0 51 NW24G36 30.12R WCI -4 KENNEDY INTL MOSUNNY 15 -3 44 NW25G35 30.10S WCI -4 NEWARK/LIBERTY SUNNY 15 -3 44 NW17G29 30.15R WCI -1 BRNX BOT. GARD N/A N/A N/A N/A W9 30.13R TETERBORO SUNNY 13 -5 44 NW16G30 30.15R WCI -3 $$ NYZ177-179-078>081-311500- LONG ISLAND NEW YORK CITY SKY/WX TMP DP RH WIND PRES REMARKS FARMINGDALE SUNNY 15 -6 39 NW21G29 30.07R WCI -2 ISLIP SUNNY 14 -4 44 NW29G37 30.02R WCI -7 SHIRLEY SUNNY 15 -6 39 N23G36 30.02R WCI -3 WESTHAMPTON SUNNY 14 -5 42 NW29G37 29.98R WCI -7 MONTAUK POINT N/A 14 1 56 NW21G36 29.93S WCI -4 $$ NYZ052-065-067-311500- HUDSON VALLEY CITY SKY/WX TMP DP RH WIND PRES REMARKS WHITE PLAINS SUNNY 11 -7 44 NW25G31 30.04R WCI -10 NEWBURGH SUNNY 9 -6 52 W8 30.11R WCI -4 MONTGOMERY SUNNY 11 -8 42 NW21G30 30.10R WCI -8 POUGHKEEPSIE SUNNY 10 -11 38 N13G21 30.13S WCI -5 ALBANY SUNNY 2 -12 52 NW16G25 30.19S WCI -18 $$ NJZ001-105-106-008-010-013-015-019>022-104-311500- NEW JERSEY CITY SKY/WX TMP DP RH WIND PRES REMARKS NEWARK/LIBERTY SUNNY 15 -3 44 NW17G29 30.15R WCI -1 TETERBORO SUNNY 13 -5 44 NW16G30 30.15R WCI -3 CALDWELL SUNNY 13 -5 44 NW15G22 30.15S WCI -3 MORRISTOWN SUNNY 14 -2 48 N12G21 30.17R WCI 0 SOMERVILLE SUNNY 16 -2 45 NW13G24 30.16R WCI 2 SUSSEX SUNNY 11 -5 48 NW15G30 30.13R WCI -5 ANDOVER N/A 11 -3 53 N12G23 30.15R WCI -3 TRENTON SUNNY 14 -3 47 NW16G25 30.19R WCI -2 MILLVILLE SUNNY 18 -2 41 NW18G29 30.23R WCI 2 ATLANTIC CITY SUNNY 18 0 45 NW24G32 30.19R WCI 0 WRIGHTSTOWN SUNNY 16 -2 45 NW16G22 30.17R WCI 0 TOMS RIVER SUNNY 16 0 48 NW20G31 30.16S WCI -1 BELMAR SUNNY 16 -4 41 NW22G29 30.12S WCI -2 $$ PAZ047>061-062-071-311500- EASTERN PENNSYLVANIA CITY SKY/WX TMP DP RH WIND PRES REMARKS PHILADELPHIA SUNNY 16 -3 43 NW23G31 30.26R WCI -2 ALLENTOWN SUNNY 13 -3 49 NW14G26 30.22R WCI -2 SCRANTON CLOUDY 9 -1 64 W13G20 30.22R WCI -7 $$ CTZ002-004>006-009-010-012-RIZ004-006-007-MAZ004-011-015-311500- SOUTHERN NEW ENGLAND IN CT CITY SKY/WX TMP DP RH WIND PRES REMARKS BRADLEY INTL MOSUNNY 7 -10 46 N15G23 30.01S WCI -10 HARTFORD SUNNY 7 -10 46 N21G28 30.03S WCI -13 DANBURY SUNNY 10 -12 36 NW14G33 30.04R WCI -6 WTRBRY/OXFORD SUNNY 7 -15 36 NW15G26 29.97R WCI -11 BRIDGEPORT SUNNY 12 -9 38 N20G38 30.03R WCI -6 MERIDEN SUNNY 10 -12 36 NW18G29 30.02S WCI -8 NEW HAVEN SUNNY 12 -10 36 NW17G33 30.01R WCI -5 CHESTER FAIR 9 -9 43 NW20G36 29.94R WCI -11 GROTON SUNNY 9 -6 50 NW25G40 29.91R WCI -12 WILLIMANTIC SUNNY 10 -8 44 NW15G28 29.95R WCI -7 IN RI CITY SKY/WX TMP DP RH WIND PRES REMARKS PROVIDENCE PTSUNNY 12 -6 44 NW17G31 29.86R WCI -5 BLOCK ISLAND PTSUNNY 16 -2 45 NW25G35 29.84S WCI -3 WESTERLY MOSUNNY 10 -6 48 NW26G37 29.87S WCI -11 IN MA CITY SKY/WX TMP DP RH WIND PRES REMARKS BOSTON CLOUDY 13 -1 54 NW23G37 29.81S WCI -6 WORCESTER SUNNY N/A N/A N/A NW24G39 29.81R WESTFIELD SUNNY 7 -9 48 NW20G30 29.99F WCI -13 PROVINCETOWN PTSUNNY 19 12 73 NW36G45 29.73R WCI -1 NANTUCKET LGT SNOW 19 12 74 NW22G35 29.72R WCI 2 $$ ANZ330-335-338-340-345-350-353-355-311500- COASTAL MARINE OBSERVATIONS STATION/POSITION TIME SKY/WX TEMP WIND PRES VSBY WAVE AIR SEA DIR/SP/G HT/PER (UTC) (F) (DEG/KT/KT) (MB) (MI) (FT/S) NY HARB ENTRANCE 1400 18 40 310/ 33/ 43 1018.4 7/ 6 4S FIRE IS 1300 37 N/A 5/ 6 20S FIRE ISLAND 1300 41 1017.0 9/ 7 23SW MTP 1400 N/A 10/ 6 HUDSON CANYON NOT AVBL EXECUTION ROCKS 1400 17 33 310/ 19/ 29 N/A WESTERN LI SOUND 1400 15 300/ 19/ 25 N/A 2/ 3 CENTRAL LI SOUND 1300 12 34 320/ 23/ 29 N/A 5/ 5 EASTERN LI SOUND NOT AVBL ROBBINS REEF 1400 14 320/ 20/ 25 1019.2 $$ >>>>>>>>>>>>>>>>>>>>>>>>>>>> KEY <<<<<<<<<<<<<<<<<<<<<<<<<<< > < > SKY/WX - SKY CONDITION/PRESENT WEATHER < > TMP - TEMPERATURE IN FAHRENHEIT < > DP - DEWPOINT IN FAHRENHEIT < > RH - RELATIVE HUMIDITY IN PERCENT < > WIND - DIRECTION AND SPEED IN MPH < > PRES - MEAN SEA LEVEL PRESSURE IN INCHES OF HG < > WCI - WIND CHILL INDEX < > VSB - VISIBILITY IN MILES < > HX - HEAT INDEX < > TC - TEMPERATURE IN CELSIUS < > VRB - VARIABLE WIND DIRECTION < > < >>>>>>>>>>>>>>>>>>>>>>>>>>>> KEY <<<<<<<<<<<<<<<<<<<<<<<<<<<

USA.gov is the U.S. government's official web portal to all federal, state and local government web resources and services.